Location: Guemps
(50.9157°N, 1.9975°E)
Time: 04:11:10
(UTC+00:00)

Daily predictions for brighter satellites

Satellite Brightness Start Highest point End
(mag) Time Altitude Azimuth Time Altitude Azimuth Time Altitude Azimuth
Cosmos 2369 Rocket 4.3 02:38:57 21° NNE 02:40:14 22° NE 02:44:38 10° E
ATLAS 2AS CENTAUR R/B 4.1 02:43:18 33° NNW 02:43:37 33° N 02:50:26 10° NE
CZ-4C R/B 3.9 02:49:27 31° ENE 02:49:27 31° ENE 02:52:44 10° NE
ADEOS II 4.4 02:46:23 10° NNE 02:47:33 17° NNE 02:47:33 17° NNE
Lacrosse 5 4.4 02:56:47 16° E 02:56:47 16° E 02:57:51 10° E
IDEFIX/ARIANE 42P 4.5 02:50:37 10° NNE 02:53:18 26° NE 02:53:18 26° NE
Cosmos 2333 Rocket 3.9 03:07:47 27° NNE 03:07:47 27° NNE 03:10:25 10° NNE
BREEZE-M DEB (TANK) 4.4 03:21:49 34° E 03:21:49 34° E 03:26:52 10° E
Cosmos 2322 Rocket 4.4 03:26:48 15° NNW 03:26:48 15° NNW 03:28:52 10° N
Cosmos 2237 Rocket 3.0 03:34:18 44° NNE 03:34:18 44° NNE 03:38:07 10° NNE
Nadezhda 3 Rocket 4.3 03:33:54 63° NNE 03:33:54 63° NNE 03:39:10 10° N
USA 215 3.2 03:32:01 10° ENE 03:38:28 79° NNW 03:38:28 79° NNW
Meteor 2-10 Rocket 4.3 03:40:28 48° ESE 03:40:39 48° E 03:45:36 10° NNE
Cosmos 2219 Rocket 3.7 03:42:44 27° N 03:42:44 27° N 03:45:56 10° NNE
ATLAS CENTAUR R/B 2.8 03:49:21 40° ENE 03:49:21 40° ENE 03:52:18 10° NE
Cosmos 2360 Rocket 4.2 03:55:08 16° NNW 03:55:08 16° NNW 03:57:46 10° N
NOSS 0 Rocket 4.4 03:56:43 49° NNW 03:56:43 49° NNW 04:02:01 10° NNE
Cosmos 1943 Rocket 2.4 03:55:25 46° N 03:56:56 64° ENE 04:02:23 10° SE
MSX 3.8 03:51:14 10° NNE 03:57:01 81° ESE 03:57:22 76° SSE
NOSS 3-1 (A) 4.0 04:01:46 59° SW 04:01:46 59° SW 04:10:00 10° SSE
H-2A R/B 4.3 03:58:45 10° NNE 04:02:40 31° E 04:06:15 12° SSE
COSMOS 2428 4.1 04:04:37 26° NNW 04:04:37 26° NNW 04:08:21 10° NNE
Cosmos 1535 Rocket 4.4 03:59:11 10° NNW 04:04:52 68° NW 04:04:52 68° NW
SL-16 R/B 2.1 04:15:01 70° SSW 04:15:43 90° WNW 04:21:27 10° NNE
Cosmos 1980 4.4 04:23:06 37° NW 04:23:06 37° NW 04:27:54 10° NNE
Cosmos 1842 Rocket 4.3 04:21:59 19° SSE 04:25:01 54° E 04:29:25 10° NNE
Cosmos 2369 Rocket 2.2 04:20:47 18° NNW 04:25:10 81° ENE 04:30:54 10° SSE
NOSS 2-1 (C) 3.7 04:30:40 52° NNE 04:30:40 52° NNE 04:33:45 10° NE
ADEOS II 4.2 04:27:27 10° NNW 04:28:30 13° NNW 04:28:30 13° NNW
STARLINK-1166 4.4 04:33:09 37° ENE 04:33:09 37° ENE 04:35:19 10° ENE
Cosmos 921 Rocket 3.9 04:28:42 10° NNW 04:33:04 50° ENE 04:37:19 10° SE
NOSS 2-1 (D) 3.6 04:34:39 54° NNE 04:34:39 54° NNE 04:37:50 10° NE
STARLINK-1165 4.3 04:35:12 39° NE 04:35:12 39° NE 04:37:28 10° ENE
IDEFIX/ARIANE 42P 3.4 04:30:17 10° N 04:34:08 35° NW 04:34:08 35° NW
CZ-4C R/B 2.8 04:34:38 38° NW 04:35:34 41° NNW 04:41:44 10° NE
Lacrosse 5 2.0 04:36:01 54° SW 04:36:01 54° SW 04:40:50 10° SE
PAYLOAD A 3.8 04:31:07 10° N 04:35:56 69° WNW 04:36:42 59° WSW
STARLINK-1169 4.2 04:37:15 41° NE 04:37:15 41° NE 04:39:36 10° ENE
ATLAS 2AS CENTAUR R/B 4.0 04:30:43 15° NW 04:36:41 38° NNE 04:43:30 10° E
Cosmos 1633 4.3 04:33:33 10° N 04:36:55 34° ENE 04:40:15 10° SE
Cosmos 2251 Rocket 3.4 04:36:06 57° WSW 04:36:58 68° WNW 04:42:17 10° NNE
Cosmos 1934 Rocket 4.3 04:31:58 10° NNW 04:46:20 - SSW 04:37:35 44° W
STARLINK-1178 4.0 04:39:15 43° NE 04:39:15 43° NE 04:41:42 10° ENE
Cosmos 2263 4.3 04:33:46 10° NNW 04:39:31 78° ENE 04:45:10 10° SE
Cosmos 1656 Rocket 4.4 04:34:08 10° NNW 04:39:43 55° NE 04:45:18 10° SE
STARLINK-1120 3.9 04:41:13 45° NE 04:41:13 45° NE 04:43:45 10° ENE
STARLINK-1131 3.8 04:43:22 47° NE 04:43:22 47° NE 04:45:59 10° ENE
COSMO-SKYMED 1 2.9 04:38:38 10° SSE 04:42:55 64° ENE 04:47:15 10° N
STARLINK-1190 3.7 04:45:30 50° NE 04:45:30 50° NE 04:48:13 10° ENE
Cosmos 2221 2.8 04:43:02 10° S 04:47:16 68° E 04:51:34 10° NNE
CZ-2C R/B 2.4 04:42:50 10° N 04:48:00 65° WNW 04:50:10 34° SW
Meteor 2-3 Rocket 3.6 04:42:40 10° NNW 04:48:23 68° W 04:54:07 10° S
Cosmos 2333 Rocket 3.9 04:49:47 17° NW 04:50:26 17° NNW 04:54:06 10° N
ADEOS Rocket 4.3 04:46:11 10° SE 04:52:14 46° ENE 04:58:56 10° N
SJ-6F 4.4 04:50:58 10° N 04:55:01 55° WNW 04:55:16 54° W
ALOS 3.1 04:51:17 10° NNE 04:55:52 51° E 05:00:25 10° S
Cosmos 1484 Rocket 3.0 04:52:05 10° NNE 04:56:02 72° ESE 05:00:00 10° S
Cosmos 1605 Rocket 4.2 04:56:13 10° NNW 05:02:03 43° W 05:07:48 10° SSW
STARLINK-1179 3.2 05:04:27 48° NNE 05:04:27 48° NNE 05:06:46 10° E
STARLINK-1176 3.1 05:05:01 50° NNE 05:05:01 50° NNE 05:07:26 10° E
STARLINK-1129 3.2 05:05:59 51° NW 05:06:25 57° N 05:09:39 10° E
SKYMED 3 4.4 05:02:39 10° S 05:07:00 76° WSW 05:11:23 10° NNW
ADEOS 4.1 05:02:14 10° N 05:07:02 38° WNW 05:08:26 32° W
STARLINK-1134 3.2 05:07:53 49° NW 05:08:24 57° N 05:11:38 10° E
Cosmos 2016 Rocket 4.4 05:02:18 10° N 05:08:30 66° ENE 05:14:46 10° SSE
GEOS 3 Rocket 3.7 05:04:20 10° NE 05:09:40 78° SE 05:14:28 13° SW
STARLINK-1135 3.3 05:10:10 47° NW 05:10:46 58° N 05:14:00 10° E
Cosmos 1238 4.3 05:09:17 10° S 05:12:15 71° E 05:15:26 10° NNE
STARLINK-1141 3.3 05:12:25 45° NW 05:13:08 58° N 05:16:22 10° E
PSLV R/B 3.9 05:10:01 10° NNE 05:13:45 73° ESE 05:17:32 10° S
STARLINK-1140 3.3 05:14:30 42° NW 05:15:19 58° N 05:18:33 10° E
Cosmos 2237 Rocket 3.5 05:16:07 20° NW 05:17:28 21° NW 05:21:43 10° NNE
STARLINK-1156 3.3 05:16:43 40° NW 05:17:37 59° N 05:20:52 10° E
Cosmos 407 Rocket 3.6 05:14:08 10° SSW 05:19:28 83° ESE 05:24:47 10° NNE
Aureole 2 Rocket 2.7 05:20:03 37° SW 05:20:03 37° SW 05:22:37 10° S
STARLINK-1148 3.3 05:18:49 38° NW 05:19:49 59° N 05:23:04 10° E
CZ-4B R/B 2.7 05:16:25 10° N 05:20:03 51° WNW 05:22:18 20° SW
Meteor 1-27 4.1 05:14:56 10° SSW 05:20:26 65° WNW 05:26:00 10° N
Cosmos 1140 Rocket 3.9 05:15:33 10° S 05:20:44 64° ESE 05:25:57 10° NNE
NOSS 2-1 (E) 3.8 05:20:17 32° WNW 05:21:11 38° NNW 05:25:03 10° NE
USA 215 3.6 05:14:57 10° ENE 05:21:18 54° N 05:25:50 20° WNW
STARLINK-1158 3.3 05:21:02 36° WNW 05:22:07 59° N 05:25:22 10° E
Meteor 2-10 Rocket 4.4 05:21:38 25° W 05:22:56 28° WNW 05:27:22 10° N
Meteor 2-2 Rocket 4.4 05:17:45 10° SSW 05:23:48 87° WNW 05:29:53 10° NNE
Meteor 1-31 Rocket 3.2 05:20:37 10° N 05:24:10 38° WNW 05:25:46 25° WSW
METEOR-M 4.2 05:20:21 10° NNE 05:25:45 86° ESE 05:31:06 10° SSW
Cosmos 2219 Rocket 4.2 05:24:27 11° NW 05:26:34 13° NNW 05:29:04 10° N
Cosmos 1805 Rocket 3.4 05:22:31 10° NNW 05:26:52 75° W 05:31:11 10° S
ATLAS CENTAUR R/B 2.5 05:25:33 24° WNW 05:27:07 30° NW 05:31:01 10° NNE
Sich 1 3.0 05:24:51 10° N 05:29:10 86° E 05:33:28 10° S
SKYMED 2 3.8 05:26:56 10° S 05:31:05 44° W 05:35:17 10° NNW
Cosmos 1727 Rocket 4.1 05:27:02 10° SSW 05:33:01 50° WNW 05:39:02 10° N
Cosmos 1500 Rocket 4.2 05:30:12 10° NNW 05:34:09 32° W 05:38:03 10° SSW
Cosmos 2173 Rocket 4.0 05:31:01 10° NNW 05:37:13 59° W 05:43:17 10° S
H-2A R/B 3.2 05:34:11 10° N 05:38:10 36° WNW 05:42:14 10° SW
Cosmos 1943 Rocket 3.1 05:37:01 15° WNW 05:40:14 25° WSW 05:44:36 10° SSW
STARLINK-1153 2.9 05:38:52 26° WNW 05:40:20 63° N 05:43:15 10° E
STARLINK-1180 2.9 05:39:02 25° WNW 05:40:31 64° N 05:43:27 10° E
STARLINK-1118 3.5 05:39:19 17° SW 05:40:57 38° SSE 05:43:21 10° E
STARLINK-1174 2.9 05:39:30 25° WNW 05:40:59 64° N 05:43:54 10° E
STARLINK-1139 2.9 05:39:43 25° WNW 05:41:13 64° N 05:44:07 10° E
STARLINK-1133 2.9 05:39:56 25° WNW 05:41:26 64° N 05:44:21 10° E
STARLINK-1151 2.9 05:40:10 25° WNW 05:41:41 64° N 05:44:36 10° E
Cosmos 2084 4.5 05:37:39 10° SSW 05:42:00 50° SE 05:46:21 10° NE
STARLINK-1160 2.9 05:40:48 24° WNW 05:42:20 64° NNE 05:45:15 10° E
STARLINK-1161 2.9 05:41:00 24° WNW 05:42:33 64° N 05:45:28 10° E
STARLINK-1145 2.9 05:41:14 24° WNW 05:42:47 65° N 05:45:42 10° E
STARLINK-1172 2.9 05:41:26 24° WNW 05:43:00 65° NNE 05:45:55 10° E
STARLINK-1182 2.9 05:41:53 24° WNW 05:43:28 65° NNE 05:46:23 10° E
Cosmos 1190 Rocket 4.0 05:38:13 10° SSW 05:43:30 76° WNW 05:48:51 10° NNE
STARLINK-1164 2.9 05:42:04 24° WNW 05:43:39 65° N 05:46:35 10° E
Cosmos 614 Rocket 4.0 05:38:39 10° SW 05:43:44 59° WNW 05:48:55 10° NNE
STARLINK-1168 2.9 05:42:18 23° WNW 05:43:54 65° N 05:46:49 10° E
STARLINK-1183 2.9 05:42:57 23° WNW 05:44:35 65° NNE 05:47:29 10° E
Okean O Rocket 2.0 05:40:23 10° NNE 05:44:46 68° ESE 05:49:06 10° S
STARLINK-1181 2.9 05:43:09 23° WNW 05:44:48 65° NNE 05:47:42 10° E
STARLINK-1149 2.7 05:43:41 24° WNW 05:45:08 67° NNE 05:47:51 10° E
STARLINK-1196 2.9 05:43:49 22° WNW 05:45:30 66° NNE 05:48:26 10° E
STARLINK-1186 2.9 05:44:16 22° WNW 05:45:57 66° NNE 05:48:52 10° E
STARLINK-1185 2.8 05:44:28 22° WNW 05:46:10 66° NNE 05:49:05 10° E
STARLINK-1175 2.8 05:44:40 22° WNW 05:46:22 66° NNE 05:49:17 10° E
STARLINK-1147 2.8 05:44:54 22° WNW 05:46:36 66° NNE 05:49:32 10° E
STARLINK-1146 2.9 05:45:07 22° WNW 05:46:51 67° NNE 05:49:47 10° E
STARLINK-1152 2.8 05:45:20 22° WNW 05:47:04 67° NNE 05:49:59 10° E
STARLINK-1195 2.8 05:45:33 22° WNW 05:47:17 67° N 05:50:13 10° E
STARLINK-1137 2.8 05:45:46 21° WNW 05:47:31 67° NNE 05:50:27 10° E
STARLINK-1142 2.8 05:46:00 21° WNW 05:47:45 67° NNE 05:50:40 10° E
STARLINK-1127 2.8 05:46:12 21° WNW 05:47:58 67° NNE 05:50:53 10° E
STARLINK-1184 2.8 05:46:25 21° WNW 05:48:11 67° NNE 05:51:06 10° E
Cosmos 1400 Rocket 3.2 05:44:13 10° S 05:48:13 68° E 05:52:18 10° NNE
STARLINK-1193 2.8 05:46:39 21° WNW 05:48:26 67° NNE 05:51:20 10° E
STARLINK-1194 2.8 05:46:49 21° WNW 05:48:37 67° NNE 05:51:32 10° E
Cosmos 1869 3.6 05:45:25 10° SW 05:49:12 42° WNW 05:53:00 10° N
DMSP B5D1-3 4.5 05:45:47 10° S 05:50:50 68° WSW 05:55:57 10° NNW
Cosmos 2100 Rocket 4.3 05:46:50 10° NNW 05:52:40 43° W 05:58:25 10° SSW
STARLINK-1132 2.6 05:51:17 19° WNW 05:53:05 72° NNE 05:55:50 10° E
NOSS 3-4 (A) 4.4 05:47:05 10° NW 05:53:44 55° NE 06:01:03 10° ESE
NOSS 3-4 (C) 4.4 05:47:11 10° NW 05:53:50 55° NE 06:01:08 10° ESE
Cosmos 468 Rocket 4.4 05:48:36 10° NNW 05:53:57 71° ENE 05:59:13 10° SSE
STARLINK-1150 2.6 05:53:40 18° WNW 05:55:34 74° NNE 05:58:20 10° ESE
STARLINK-1163 2.6 05:54:51 18° WNW 05:56:47 75° NNE 05:59:33 10° ESE
STARLINK-1162 3.0 05:55:24 16° WNW 05:57:51 73° NNE 06:01:03 10° E
STARLINK-1173 2.6 05:56:42 17° WNW 05:58:42 77° NNE 06:01:29 10° ESE
STARLINK-1177 2.6 05:56:51 17° WNW 05:58:52 77° NNE 06:01:38 10° ESE
Shenzhou-11 Module 4.4 05:57:50 10° SSW 05:59:10 13° S 06:00:30 10° SE
Cosmos 1151 Rocket 3.9 05:55:27 10° S 05:59:39 54° E 06:03:55 10° NNE
STARLINK-1167 2.6 05:57:38 16° WNW 05:59:40 77° NNE 06:02:27 10° ESE
STARLINK-1157 3.0 05:57:18 15° WNW 05:59:50 74° NNE 06:03:02 10° E
SL-16 R/B 3.4 05:56:56 13° W 06:00:39 24° NW 06:05:12 10° NNE
FENGYUN 3A 3.8 05:55:30 10° N 06:00:47 52° WNW 06:06:03 10° SW
Cosmos 676 Rocket 4.0 05:55:40 10° SSW 06:01:00 86° WNW 06:06:24 10° NNE
STARLINK-1159 3.0 05:59:16 15° WNW 06:01:53 75° NNE 06:05:05 10° E
STARLINK-1070 3.1 06:00:55 10° SW 06:03:49 59° SSE 06:06:43 10° ENE
STARLINK-1171 3.0 06:01:24 14° WNW 06:04:06 76° NNE 06:07:20 10° ESE
STARLINK-1124 2.9 06:01:29 10° WSW 06:04:23 69° SSE 06:07:18 10° ENE
Cosmos 1328 Rocket 4.2 06:00:02 10° S 06:04:25 63° E 06:08:51 10° NNE
STARLINK-1136 2.5 06:02:19 15° WNW 06:04:33 81° NNE 06:07:20 10° ESE
STARLINK-1066 3.1 06:01:50 10° SW 06:04:43 60° SSE 06:07:37 10° ENE
STARLINK-1081 3.1 06:02:03 10° SW 06:04:56 61° SSE 06:07:50 10° ENE
STARLINK-1069 3.1 06:02:30 10° WSW 06:05:24 61° SSE 06:08:18 10° ENE
STARLINK-1085 3.1 06:02:44 10° WSW 06:05:37 61° SSE 06:08:32 10° ENE
Cosmos 1238 Rocket 4.0 05:59:50 10° NNW 06:05:47 48° W 06:10:55 10° SSW
STARLINK-1086 3.1 06:02:57 10° WSW 06:05:51 61° SSE 06:08:45 10° ENE
Cosmos 1459 Rocket 4.4 06:00:24 10° NNW 06:06:01 38° W 06:11:40 10° SSW
STARLINK-1095 3.1 06:03:11 10° WSW 06:06:04 62° SSE 06:08:59 10° ENE
STARLINK-1155 3.0 06:03:22 13° WNW 06:06:09 78° NNE 06:09:22 10° ESE
STARLINK-1077 3.1 06:03:24 10° WSW 06:06:17 62° SSE 06:09:12 10° ENE
STARLINK-1075 3.1 06:03:37 10° WSW 06:06:31 62° SSE 06:09:26 10° ENE
STARLINK-1093 3.1 06:03:51 10° WSW 06:06:44 62° SSE 06:09:39 10° ENE
STARLINK-1074 3.1 06:04:04 10° WSW 06:06:57 62° SSE 06:09:52 10° ENE
Cosmos 2061 Rocket 4.2 06:01:02 10° NNW 06:07:05 51° W 06:13:03 10° SSW
STARLINK-1087 3.1 06:04:18 10° WSW 06:07:12 63° SSE 06:10:06 10° ENE
STARLINK-1088 3.1 06:04:30 10° WSW 06:07:23 63° SSE 06:10:17 10° ENE
STARLINK-1115 3.1 06:04:44 10° WSW 06:07:38 63° SSE 06:10:33 10° ENE
STARLINK-1076 3.0 06:04:58 10° WSW 06:07:52 63° SSE 06:10:46 10° ENE
STARLINK-1092 3.0 06:05:12 10° WSW 06:08:05 64° SSE 06:11:00 10° ENE
STARLINK-1080 3.0 06:05:24 10° WSW 06:08:17 64° SSE 06:11:12 10° ENE
H-2A R/B 3.1 06:04:42 10° NNE 06:08:29 70° E 06:12:12 10° S
STARLINK-1166 3.0 06:05:38 12° WNW 06:08:30 79° NNE 06:11:44 10° ESE
STARLINK-1090 3.0 06:05:38 10° WSW 06:08:32 64° SSE 06:11:27 10° ENE
Cosmos 2369 Rocket 3.4 06:04:29 10° NW 06:08:32 20° W 06:12:34 10° SW
STARLINK-1089 3.0 06:05:52 10° WSW 06:08:46 64° SSE 06:11:41 10° ENE
STARLINK-1107 3.0 06:06:04 10° WSW 06:08:57 64° SSE 06:11:52 10° ENE
STARLINK-1109 3.0 06:06:18 10° WSW 06:09:13 65° SSE 06:12:07 10° ENE
STARLINK-1091 3.0 06:06:33 10° WSW 06:09:27 65° SSE 06:12:21 10° ENE
STARLINK-1072 3.0 06:06:45 10° WSW 06:09:39 65° SSE 06:12:34 10° ENE
STARLINK-1096 3.0 06:06:58 10° WSW 06:09:51 65° SSE 06:12:46 10° ENE
STARLINK-1079 3.0 06:07:12 10° WSW 06:10:06 65° SSE 06:13:01 10° ENE
STARLINK-1116 3.0 06:07:26 10° WSW 06:10:20 66° SSE 06:13:16 10° ENE
STARLINK-1165 3.0 06:07:41 12° WNW 06:10:39 81° NNE 06:13:53 10° ESE
STARLINK-1094 3.0 06:07:53 10° WSW 06:10:47 66° SSE 06:13:42 10° ENE
STARLINK-1117 3.0 06:08:06 10° WSW 06:11:00 66° SSE 06:13:55 10° ENE
Cosmos 921 Rocket 4.3 06:07:39 10° NW 06:11:01 21° W 06:14:19 10° SW
STARLINK-1078 3.0 06:08:20 10° WSW 06:11:13 67° SSE 06:14:08 10° ENE
STARLINK-1108 3.0 06:08:32 10° WSW 06:11:27 67° SSE 06:14:22 10° ENE
Cosmos 1633 3.8 06:08:47 10° NW 06:11:33 21° W 06:14:19 10° SW
STARLINK-1071 3.0 06:08:45 10° WSW 06:11:39 67° SSE 06:14:34 10° ENE
STARLINK-1110 3.0 06:09:00 10° WSW 06:11:54 67° SSE 06:14:49 10° ENE
STARLINK-1122 3.0 06:09:27 10° WSW 06:12:21 68° SSE 06:15:17 10° ENE
STARLINK-1126 3.0 06:09:40 10° WSW 06:12:34 68° SSE 06:15:30 10° ENE
STARLINK-1169 3.0 06:09:45 11° WNW 06:12:47 82° NNE 06:16:01 10° ESE
STARLINK-1082 2.9 06:09:54 10° WSW 06:12:49 68° SSE 06:15:44 10° ENE
STARLINK-1100 3.0 06:10:07 10° WSW 06:13:02 68° SSE 06:15:56 10° ENE
STARLINK-1083 2.9 06:10:20 10° WSW 06:13:15 68° SSE 06:16:10 10° ENE
STARLINK-1125 2.9 06:10:34 10° WSW 06:13:28 69° SSE 06:16:23 10° ENE
USA 116 4.5 06:11:29 10° SSW 06:13:55 20° W 06:16:21 10° NW
STARLINK-1178 3.0 06:11:44 11° WNW 06:14:51 84° NNE 06:18:05 10° ESE
NOAA 6 4.1 06:10:41 10° N 06:15:50 65° WNW 06:20:56 10° SSW
Helios 1A Rocket 2.9 06:11:45 10° NNE 06:15:56 87° WNW 06:20:04 10° SSW
Cosmos 1603 4.1 06:11:01 10° WSW 06:16:26 43° NW 06:21:51 10° NNE
Cosmos 1725 Rocket 4.1 06:10:49 10° NNW 06:16:53 54° W 06:22:57 10° SSW
STARLINK-1120 3.0 06:13:42 10° WNW 06:16:55 85° NNE 06:20:08 10° ESE
STARLINK-1170 2.4 06:15:15 10° WNW 06:17:51 86° S 06:20:30 10° ESE
Lacrosse 5 3.8 06:15:50 10° W 06:17:54 12° WSW 06:19:59 10° SW
CZ-4B DEB 4.4 06:13:47 10° N 06:19:03 49° WNW 06:24:17 10° SW
STARLINK-1131 3.0 06:15:56 10° WNW 06:19:11 87° NNE 06:22:25 10° ESE
COSMO-SKYMED 1 4.1 06:16:43 10° SW 06:19:32 17° W 06:22:21 10° NW
Cosmos 841 Rocket 4.2 06:15:08 10° NNW 06:20:18 57° ENE 06:25:27 10° SE
Cosmos 1633 Rocket 3.3 06:17:04 10° NNW 06:21:18 49° W 06:25:31 10° SSW
Cosmos 1943 3.5 06:15:53 10° SW 06:21:18 48° NW 06:26:47 10° NNE
STARLINK-1190 3.0 06:18:10 10° WNW 06:21:25 89° NNE 06:24:39 10° ESE
BREEZE-M DEB (TANK) 3.0 06:16:29 10° WNW 06:22:21 68° SSW 06:26:09 10° ESE
Cosmos 1862 4.2 06:19:27 10° NNW 06:22:53 28° W 06:26:19 10° SSW
Cosmos 1656 Rocket 4.5 06:18:08 10° NW 06:23:03 31° WSW 06:27:58 10° SSW
Cosmos 2123 Rocket 4.1 06:16:51 10° SSW 06:23:05 61° WNW 06:29:21 10° N
Cosmos 1515 Rocket 4.3 06:19:05 10° S 06:23:28 61° E 06:27:51 10° NNE
Cosmos 1666 Rocket 4.1 06:19:43 10° NNW 06:23:52 39° W 06:27:57 10° SSW
Cosmos 220 Rocket 4.0 06:19:49 10° NNW 06:24:04 89° W 06:28:17 10° SSE
Cosmos 1933 Rocket 3.8 06:20:06 10° N 06:24:29 78° E 06:28:49 10° SSE
CZ-2C R/B 4.3 06:22:50 10° NNW 06:25:16 13° NW 06:27:42 10° W
Cosmos 2221 4.1 06:22:42 10° WSW 06:25:21 16° WNW 06:28:02 10° NNW
CZ-4C R/B 3.8 06:20:40 10° WNW 06:25:48 27° N 06:31:44 10° NE
CZ-4B R/B 3.2 06:22:04 10° N 06:27:20 61° WNW 06:32:33 10° SSW
ATLAS 2AS CENTAUR R/B 3.1 06:20:59 10° NW 06:28:46 81° NE 06:35:54 10° SE
